Regional Weather Roundup
Issued by NWS

Home | Current Version | Previous Version | Text Only | Print | Product List | Glossary Off
Versions: 1 2 3 4 5 6 7 8 9 10 11 12 13 14 15 16 17 18 19 20 21 22 23 24 25 26 27 28 29 30 31 32 33 34 35 36 37 38 39 40 41 42 43 44 45 46 47 48 49 50

000
ASUS45 KCYS 310010
RWRWY

WYOMING REGIONAL WEATHER ROUNDUP
NATIONAL WEATHER SERVICE CHEYENNE WY
600 PM MDT SUN AUG 30 2015

NOTE:  "FAIR" INDICATES FEW OR NO CLOUDS BELOW 12,000 FEET
WITH NO SIGNIFICANT WEATHER AND/OR OBSTRUCTIONS TO VISIBILITY.

WYZ001-310100-
YELLOWSTONE NATIONAL PARK

CITY           SKY/WX    TMP DP  RH WIND       PRES   REMARKS
LK YELLOWSTONE   N/A     64  35  34 VRB7G23   30.14S
6HR MIN TEMP:  61; 6HR MAX TEMP:  67;

W YELLOWSTONE  NOT AVBL

$$
WYZ002>013-054>058-071-098>099-310100-
NORTHERN WYOMING

CITY           SKY/WX    TMP DP  RH WIND       PRES   REMARKS
JACKSON        SUNNY     73  39  29 SW17      30.05S
CODY           FAIR      82  39  21 W10G18    29.85F
GREYBULL       FAIR      90  43  19 NE5       29.75F
6HR MIN TEMP:  81; 6HR MAX TEMP:  91;

WORLAND        FAIR      88  46  23 N3        29.76F
6HR MIN TEMP:  82; 6HR MAX TEMP:  95; 6HR PCP:  0.02;

SHERIDAN       FAIR      78  52  40 S8        29.82R THUNDER
6HR MIN TEMP:  71; 6HR MAX TEMP:  86; 6HR PCP:  0.01;

BUFFALO        FAIR      77  50  38 NW5       29.89F
6HR MIN TEMP:  75; 6HR MAX TEMP:  90;

GILLETTE       FAIR      82  50  32 SE7       29.83F
6HR MIN TEMP:  79; 6HR MAX TEMP:  96; 6HR PCP: TRACE;

HULETT         LGT RAIN  82  45  26 E3G23     29.86R
NEWCASTLE      FAIR      91  37  15 MISG      29.82S

$$
WYZ014>020-022>026-101>103-310100-
CENTRAL WYOMING

CITY           SKY/WX    TMP DP  RH WIND       PRES   REMARKS
BIG PINEY      FAIR      77  35  21 W17G25    30.09F
6HR MIN TEMP:  72; 6HR MAX TEMP:  83;

PINEDALE       FAIR      73  34  23 W14G20    30.09S
DUBOIS         FAIR      72  32  23 W16G26    30.05S
LANDER         PTSUNNY   78  46  32 S18G29    29.94R
6HR MIN TEMP:  77; 6HR MAX TEMP:  90;

RIVERTON       FAIR      76  45  33 S24G33    29.94S
6HR MIN TEMP:  76; 6HR MAX TEMP:  89;

CASPER         PTSUNNY   82  40  22 SW12      29.97S
6HR MIN TEMP:  81; 6HR MAX TEMP:  92;

DOUGLAS        FAIR      87  40  19 W12       29.92F
6HR MIN TEMP:  87; 6HR MAX TEMP:  99; 6HR PCP: TRACE;


$$
WYZ021-027>030-104>119-310100-
SOUTHERN WYOMING

CITY           SKY/WX    TMP DP  RH WIND       PRES   REMARKS
EVANSTON       FAIR      76  39  26 SW23G30   30.11F
6HR MIN TEMP:  70; 6HR MAX TEMP:  82; 6HR PCP: TRACE;

KEMMERER       FAIR      73  34  23 SW20G28   30.12S
FORT BRIDGER   CLEAR     68  54  60 W8        30.14F
ROCK SPRINGS   FAIR      71  50  47 SW14      30.10S
6HR MIN TEMP:  58; 6HR MAX TEMP:  83; 6HR PCP:  0.17;

DIXON          FAIR      79  37  21 SW12G17   30.14R
RAWLINS        FAIR      71  45  39 NW14      30.13S
6HR MIN TEMP:  70; 6HR MAX TEMP:  86; 6HR PCP: TRACE;

SARATOGA       FAIR      79  37  22 SW16G23   30.14S
LARAMIE        FAIR      77  39  25 SW7       30.14F
6HR MIN TEMP:  73; 6HR MAX TEMP:  86; 6HR PCP: TRACE;

CHEYENNE       PTSUNNY   85  39  19 SW3       30.04R
6HR MIN TEMP:  85; 6HR MAX TEMP:  92;

TORRINGTON     FAIR      92  44  19 MISG      29.86R
6HR MIN TEMP:  88; 6HR MAX TEMP:  99;

PINE BLUFFS    FAIR      91  34  13 SW8       29.95S

$$



USA.gov is the U.S. government's official web portal to all federal, state and local government web resources and services.